FENGYUN 1C DEB, 31742

Orbit data source: Space-Track

FENGYUN 1C DEB, 31742 is space debris in SSO originally from a launch on Mon, 10 May 1999 UTC launched from the Taiyaun Space Center, China (TSC). Fengyun 1C debris stems from the Chinese weather satellite Fengyun-1C, which was intentionally destroyed by a Chinese anti-satellite missile in 2007. This event dramatically increased the amount of space debris, with thousands of trackable fragments posing hazards to satellites and human spaceflight. The Fengyun 1C debris cloud has become a focal point in discussions about space sustainability and the need for international regulations to prevent the creation of new debris.

Loading next visibility...
Identifier
31742, 1999-025CER
Orbit
SSO
Country
Flag of CNCN / PRC
Related business
Manufacturer
Unknown
Mission
Spacecraft
Bus & Motor
Unknown
Mass
Unknown
Launch date (UTC)
1999-05-10 (27 years ago)
Launch vehicle
Unknown
Launch site
Taiyaun Space Center, China (TSC)
Object type
Payload
Rocket body
Debris
Shape & HBR
Unknown shape, 0.1 m
Radar Cross Section
Small (<0.1 m²)

Expand to show TLE details & history
Last TLE update: 1 day ago

TLE from 1 day ago
0 FENGYUN 1C DEB
1 31742U 99025CER 26206.87107742  .00001610  00000-0  50270-3 0  9999
2 31742  98.8953  80.8072 0076303  23.1526 337.3070 14.40596345998903
Epoch: 2026-07-25T20:54Z
TLE epoch observation values (Epoch: 2026-07-25T20:54:21.089Z)
Latitude
0.00005°
Longitude
-176.35782°
Altitude
709.293 km
Speed
7.527 km/s
True Right ascension
05h 23m 13s
True Declination
0° 00' 00"
Sunlit
Object was in daylight at epoch
Visualization orbit readout
Latitude
Unknown
Longitude
Unknown
Altitude
Unknown
Speed
Unknown
Apparent Right ascension
Unknown
Apparent Declination
Unknown
Sunlit
N/A
Visualization observer readout
Local Sidereal Time
16:16:06
Azimuth
Unknown
Elevation
Unknown
Doppler factor
Unknown
Orbital elements
Apogee altitude
808.087 km
Perigee altitude
699.251 km
Semi-major axis
7,131.806 km
Eccentricity
0.00763
Inclination
98.8953°
RAAN
80.8072°
Arg. of periapsis
23.1526°
True anomaly
336.96668°
Mean anomaly
337.307°
Eccentric anomaly
337.13714°
Mean motion
3.60366 °/min
Orbital period
99.9 mins
BSTAR
0.0005027
Loading maneuver chart data...
Computing Atmospheric mass density...

Documentation

Showing up to 5 results
|